[[{"header":{"parameterUnit":"m.s-1","parameterCategory":1,"la1":30.2991,"la2":30.254,"lo1":-89.0895,"lo2":-89.0444,"dy":0.0017,"dx":0.0017,"nx":28,"ny":28,"refTime":"2023-11-20T09:00:00:Z","depth":0,"parameterNumber":2,"parameterNumberName":"U-component_of_WINDS"},"data":[0,0,0,0,0,0,0,0,0,0,0,0,0,0,0,0,0,0,0,0,0,0,0,0,0,0,0,0,0,0,0,0,0,0,0,0,0,0,0,0,0,0,0,0,0,0,0,0,0,0,0,0,0,0,0,0,0,0,-0.6506,-0.6508,0,-0.6703,-0.6706,-0.6708,-0.6817,-0.6817,-0.6817,-0.6818,-0.7036,-0.7041,-0.7047,0,0,0,0,0,0,0,0,0,0,0,0,0,-0.6239,-0.6243,-0.6506,-0.6508,-0.6511,-0.6703,-0.6706,-0.6708,-0.6817,-0.6817,-0.6817,-0.6818,-0.7034,-0.7041,-0.7047,0,0,0,0,0,0,0,0,0,0,0,0,0,-0.6388,-0.6244,-0.6506,-0.6588,-0.6597,-0.6702,-0.6706,-0.6709,-0.6817,-0.6817,-0.6817,-0.6818,-0.7032,-0.704,-0.7048,-0.7092,0,0,-0.7074,-0.7077,0,0,0,0,0,0,0,0,-0.6379,-0.6397,-0.6573,-0.6582,-0.6593,-0.6735,-0.6692,-0.6838,-0.6817,-0.6734,-0.6818,-0.6818,-0.6937,-0.6953,-0.699,-0.7102,-0.7112,-0.7075,-0.708,-0.7083,-0.7086,0,0,0,0,0,0,0,-0.6369,-0.639,-0.6585,-0.6576,-0.6588,-0.662,-0.6641,-0.672,-0.6831,-0.6741,-0.6749,-0.677,-0.6942,-0.6981,-0.6996,-0.7115,-0.7074,-0.7082,-0.7087,-0.709,-0.7276,-0.7276,0,0,0,0,0,0,-0.6343,-0.638,-0.6578,-0.6591,-0.6484,-0.6624,-0.6648,-0.669,-0.6831,-0.6852,-0.677,-0.6775,-0.6967,-0.6986,-0.7004,-0.7065,-0.7083,-0.7091,-0.7096,-0.7276,-0.7276,-0.7276,0,0,0,0,0,0,-0.6337,-0.6359,-0.657,-0.6488,-0.6517,-0.6628,-0.6674,-0.6693,-0.6732,-0.6852,-0.6874,-0.6788,-0.6968,-0.6992,-0.7069,-0.7074,-0.7095,-0.7102,-0.7276,-0.7276,-0.7276,-0.7187,0,0,0,0,0,0,-0.6329,-0.6357,-0.6371,-0.6487,-0.6521,-0.6627,-0.6674,-0.6697,-0.6744,-0.6753,-0.6875,-0.6896,-0.697,-0.7055,-0.7077,-0.7086,-0.7109,-0.7276,-0.7276,-0.7276,-0.719,-0.7184,-0.7178,0,0,0,0,0,-0.6319,-0.6341,-0.6371,-0.6394,-0.654,-0.6627,-0.6647,-0.6727,-0.6744,-0.6762,-0.6839,-0.6892,-0.7069,-0.7062,-0.7087,-0.7099,-0.7276,-0.7276,-0.7276,-0.7192,-0.7185,-0.7178,0,0,0,0,0,0,-0.6229,-0.6358,-0.6392,-0.6452,-0.6527,-0.6645,-0.6669,-0.6716,-0.6792,-0.6797,-0.6899,-0.6926,-0.6993,-0.7054,-0.7044,-0.715,-0.7179,-0.7184,-0.7107,-0.7101,-0.7095,-0.708,-0.7116,0,0,0,0,0,-0.6214,-0.6269,-0.6382,-0.6424,-0.6459,-0.6557,-0.6598,-0.6653,-0.6737,-0.6771,-0.6854,-0.6938,-0.7013,-0.706,-0.7136,-0.7199,-0.7229,-0.722,-0.7214,-0.7209,-0.7212,-0.7252,-0.725,-0.7275,-0.7275,-0.7275,0,0,-0.6189,-0.6266,-0.6296,-0.6408,-0.6472,-0.6531,-0.6584,-0.6644,-0.669,-0.6782,-0.6858,-0.6921,-0.7023,-0.7092,-0.7127,-0.7145,-0.7212,-0.7209,-0.7203,-0.721,-0.7251,-0.7249,-0.7247,-0.7275,-0.7275,-0.7275,0,0,-0.6171,-0.6234,-0.6275,-0.6338,-0.6432,-0.6497,-0.6507,-0.6618,-0.6662,-0.6738,-0.6809,-0.6868,-0.6994,-0.7063,-0.7115,-0.7122,-0.7175,-0.7144,-0.7115,-0.7153,-0.7151,-0.7149,-0.7153,-0.7153,-0.7147,-0.7147,-0.7147,0,-0.6128,-0.6214,-0.6293,-0.6348,-0.6396,-0.6476,-0.6522,-0.6581,-0.6698,-0.6732,-0.6749,-0.6909,-0.6983,-0.707,-0.7071,-0.711,-0.7128,-0.7131,-0.7143,-0.7143,-0.7143,-0.7148,-0.7149,-0.7143,-0.7143,-0.7144,-0.7144,0,-0.6157,-0.6216,-0.624,-0.6344,-0.6396,-0.6446,-0.6537,-0.6581,-0.6631,-0.6695,-0.6774,-0.6864,-0.696,-0.6985,-0.7037,-0.708,-0.7088,-0.7123,-0.7155,-0.7135,-0.7142,-0.7144,-0.7137,-0.7138,-0.714,-0.7141,0,0,-0.609,-0.6234,-0.6242,-0.629,-0.64,-0.645,-0.6506,-0.6593,-0.663,-0.6708,-0.676,-0.6864,-0.6896,-0.6955,-0.7016,-0.7048,-0.7049,-0.708,-0.7084,-0.7072,-0.7105,-0.7078,-0.7079,-0.7084,-0.7085,-0.7085,-0.7097,0,-0.6089,-0.6185,-0.6258,-0.633,-0.6387,-0.6463,-0.6513,-0.6588,-0.665,-0.6712,-0.6783,-0.6855,-0.6891,-0.6927,-0.6962,-0.7041,-0.7058,-0.7041,-0.7138,-0.714,-0.711,-0.7082,-0.7055,-0.7061,-0.71,-0.71,-0.7101,0,-0.61,-0.6169,-0.6244,-0.6348,-0.6375,-0.6416,-0.6503,-0.6559,-0.6648,-0.6692,-0.6755,-0.6816,-0.6884,-0.6907,-0.7004,-0.6991,-0.7035,-0.708,-0.7082,-0.7096,-0.712,-0.7096,-0.7065,-0.7066,-0.7105,-0.7105,-0.7105,0,-0.6044,-0.6157,-0.6216,-0.6256,-0.6377,-0.6405,-0.6459,-0.6547,-0.6595,-0.6673,-0.6705,-0.6792,-0.6839,-0.6907,-0.6992,-0.7001,-0.708,-0.7111,-0.7122,-0.712,-0.7136,-0.7134,-0.7113,-0.7162,-0.7162,-0.7162,-0.7162,0,-0.6036,-0.6079,-0.6192,-0.6229,-0.6282,-0.6366,-0.6418,-0.6478,-0.6556,-0.661,-0.6684,-0.6734,-0.6842,-0.6907,-0.6975,-0.7045,-0.7067,-0.7107,-0.7125,-0.7101,-0.7095,-0.7132,-0.7134,-0.7163,-0.7162,-0.7162,-0.7162,0,-0.5983,-0.6059,-0.6129,-0.6237,-0.6266,-0.63,-0.6395,-0.6436,-0.6501,-0.6568,-0.659,-0.6694,-0.6774,-0.6864,-0.6976,-0.7022,-0.7088,-0.7113,-0.7056,-0.7066,-0.7072,-0.707,-0.7074,-0.708,-0.7123,-0.7123,-0.7122,0,-0.5972,-0.6007,-0.6116,-0.6154,-0.6204,-0.6265,-0.6313,-0.6399,-0.6447,-0.655,-0.658,-0.6664,-0.6735,-0.6861,-0.695,-0.7037,-0.7066,-0.7061,-0.708,-0.7054,-0.7067,-0.7064,-0.7069,-0.7056,-0.7055,-0.7054,-0.7054,0,-0.5947,-0.5982,-0.6045,-0.6121,-0.6174,-0.624,-0.631,-0.6339,-0.644,-0.6491,-0.6569,-0.6625,-0.6736,-0.682,-0.6917,-0.6979,-0.7034,-0.7046,-0.7054,-0.703,-0.6996,-0.7016,-0.7043,-0.7047,-0.7047,-0.7048,-0.7048,-0.7048,-0.5916,-0.595,-0.6031,-0.61,-0.6159,-0.6222,-0.6265,-0.6334,-0.6399,-0.6492,-0.6541,-0.662,-0.6711,-0.6845,-0.6905,-0.6972,-0.699,-0.7,-0.7003,-0.7005,-0.6998,-0.6983,-0.699,-0.699,-0.6991,-0.6991,-0.6991,0,-0.5895,-0.595,-0.6011,-0.6103,-0.6157,-0.6198,-0.6277,-0.6322,-0.6388,-0.6465,-0.6532,-0.6625,-0.6706,-0.68,-0.6889,-0.6925,-0.6953,-0.6946,-0.6945,-0.6959,-0.6976,-0.6961,-0.6921,-0.6921,-0.6921,-0.6921,-0.6921,-0.6921,-0.589,-0.595,-0.5995,-0.6087,-0.6144,-0.6217,-0.6259,-0.6319,-0.638,-0.6477,-0.6543,-0.6601,-0.6687,-0.6782,-0.686,-0.6887,-0.6917,-0.6902,-0.6936,-0.6951,-0.6957,-0.6963,-0.6949,-0.6908,-0.6908,-0.6913,-0.6913,-0.6913]},{"header":{"parameterUnit":"m.s-1","parameterCategory":1,"la1":30.2991,"la2":30.254,"lo1":-89.0895,"lo2":-89.0444,"dy":0.0017,"dx":0.0017,"nx":28,"ny":28,"refTime":"2023-11-20T09:00:00:Z","depth":0,"parameterNumber":3,"parameterNumberName":"V-component_of_WINDS"},"data":[0,0,0,0,0,0,0,0,0,0,0,0,0,0,0,0,0,0,0,0,0,0,0,0,0,0,0,0,0,0,0,0,0,0,0,0,0,0,0,0,0,0,0,0,0,0,0,0,0,0,0,0,0,0,0,0,0,0,6.3655,6.366,0,6.408,6.4085,6.4089,6.4233,6.4232,6.423,6.4228,6.4657,6.467,6.4683,0,0,0,0,0,0,0,0,0,0,0,0,0,6.2964,6.2976,6.3655,6.366,6.3665,6.4079,6.4085,6.4091,6.4234,6.4232,6.4229,6.4228,6.4653,6.4668,6.4684,0,0,0,0,0,0,0,0,0,0,0,0,0,6.3313,6.298,6.3654,6.3787,6.3803,6.4078,6.4085,6.4092,6.4234,6.4231,6.4229,6.4227,6.4648,6.4667,6.4686,6.4858,0,0,6.4745,6.4754,0,0,0,0,0,0,0,0,6.3293,6.3339,6.3762,6.3778,6.3797,6.4101,6.3999,6.4349,6.4235,6.407,6.4228,6.4225,6.4474,6.4507,6.4593,6.4878,6.4896,6.4747,6.4759,6.4767,6.4773,0,0,0,0,0,0,0,6.3269,6.3321,6.3823,6.3768,6.3789,6.3824,6.3871,6.4066,6.4281,6.4084,6.4096,6.4144,6.4483,6.4573,6.4604,6.4902,6.4747,6.4764,6.4776,6.4784,6.5353,6.5356,0,0,0,0,0,0,6.3223,6.33,6.3809,6.3836,6.3534,6.3838,6.3891,6.4006,6.4279,6.4319,6.4146,6.415,6.4541,6.4581,6.4619,6.4841,6.4767,6.4786,6.4797,6.535,6.5354,6.5357,0,0,0,0,0,0,6.3208,6.3267,6.3792,6.3571,6.3641,6.3853,6.3981,6.4016,6.4107,6.4326,6.4365,6.42,6.4541,6.4592,6.4799,6.4858,6.4794,6.4812,6.5345,6.5351,6.5356,6.5284,0,0,0,0,0,0,6.3187,6.3261,6.3329,6.3572,6.3652,6.3965,6.3985,6.4026,6.4141,6.4149,6.4386,6.4423,6.4543,6.4769,6.4818,6.4883,6.4827,6.5341,6.5348,6.5354,6.5282,6.5286,6.5289,0,0,0,0,0,6.3162,6.329,6.3332,6.3392,6.3742,6.3968,6.4014,6.4151,6.4145,6.4215,6.4356,6.4416,6.4843,6.4788,6.4845,6.4917,6.5338,6.5346,6.5353,6.528,6.5285,6.5289,0,0,0,0,0,0,6.3046,6.3324,6.3373,6.3584,6.3752,6.3992,6.4085,6.4151,6.4323,6.4323,6.4483,6.4536,6.4731,6.4845,6.4779,6.51,6.5094,6.5113,6.5018,6.5025,6.5028,6.4997,6.4844,0,0,0,0,0,6.3045,6.3207,6.3441,6.3604,6.3686,6.387,6.3974,6.4065,6.4245,6.4316,6.4472,6.4643,6.4816,6.4926,6.5097,6.5298,6.5353,6.5376,6.538,6.5382,6.5397,6.5514,6.5528,6.5383,6.5383,6.5382,0,0,6.3044,6.3216,6.3308,6.3585,6.3726,6.3889,6.3929,6.41,6.4223,6.4341,6.4548,6.4668,6.4869,6.5074,6.5172,6.5175,6.5449,6.5391,6.5391,6.5406,6.5523,6.5537,6.5549,6.5388,6.5387,6.5386,0,0,6.3127,6.3273,6.3426,6.3567,6.3781,6.3904,6.394,6.4172,6.4258,6.4468,6.4561,6.4708,6.5002,6.5143,6.5252,6.5391,6.5453,6.5442,6.5461,6.5574,6.5585,6.5596,6.5648,6.5664,6.5456,6.5456,6.5456,0,6.3098,6.3351,6.3496,6.3664,6.3783,6.39,6.4057,6.4186,6.4443,6.4523,6.4523,6.4897,6.504,6.5281,6.5315,6.5399,6.5446,6.5416,6.5572,6.5585,6.5597,6.5648,6.5666,6.5453,6.5453,6.5454,6.5454,0,6.3306,6.348,6.3578,6.3827,6.3957,6.4118,6.4287,6.4401,6.4481,6.4603,6.4816,6.4992,6.5202,6.5266,6.5344,6.5519,6.5515,6.5541,6.5539,6.5606,6.5656,6.5677,6.545,6.545,6.5451,6.5452,0,0,6.3327,6.3657,6.3691,6.3807,6.4052,6.4189,6.4354,6.4563,6.4659,6.4832,6.4976,6.5223,6.5251,6.5375,6.547,6.5568,6.567,6.5584,6.5591,6.5595,6.5876,6.5855,6.5876,6.5712,6.5716,6.5719,6.586,0,6.3444,6.3749,6.3885,6.4128,6.4291,6.4406,6.4551,6.4716,6.4835,6.4989,6.512,6.5294,6.5315,6.5392,6.5494,6.5635,6.5728,6.5627,6.5847,6.5853,6.5795,6.5902,6.5881,6.6005,6.588,6.5883,6.5886,0,6.362,6.3798,6.4058,6.4287,6.436,6.4488,6.4692,6.4838,6.5028,6.5108,6.5248,6.534,6.5518,6.5503,6.5752,6.568,6.5778,6.5861,6.5869,6.5896,6.5875,6.5933,6.6047,6.6066,6.5918,6.5915,6.5913,0,6.3612,6.3916,6.4112,6.4207,6.4478,6.4566,6.4683,6.4871,6.4988,6.5165,6.5243,6.5436,6.5543,6.5691,6.5832,6.5807,6.6068,6.6063,6.6139,6.6136,6.619,6.6185,6.6323,6.6249,6.6249,6.6249,6.6248,0,6.3729,6.3884,6.4113,6.4233,6.441,6.4565,6.4736,6.4861,6.5028,6.5174,6.5283,6.5417,6.5595,6.5752,6.5864,6.6054,6.61,6.617,6.6198,6.6162,6.6153,6.6229,6.6225,6.6254,6.6253,6.6252,6.6251,0,6.3751,6.391,6.4132,6.4371,6.4435,6.4555,6.476,6.4881,6.5005,6.5189,6.5241,6.5436,6.5627,6.5783,6.6031,6.6106,6.6306,6.6336,6.6242,6.6257,6.6325,6.6317,6.6518,6.6554,6.6453,6.6454,6.6455,0,6.3816,6.3939,6.4192,6.43,6.4416,6.4586,6.4708,6.4864,6.4986,6.5214,6.5307,6.5506,6.5675,6.5973,6.6136,6.6328,6.6366,6.6423,6.6395,6.6355,6.6369,6.6361,6.6375,6.6425,6.6426,6.6426,6.6426,0,6.3915,6.3989,6.4161,6.4361,6.4504,6.4668,6.4835,6.4916,6.5103,6.5234,6.5432,6.5563,6.5819,6.6015,6.6224,6.6343,6.6417,6.6434,6.6462,6.6427,6.6368,6.6403,6.6252,6.6429,6.6428,6.6428,6.6428,6.6428,6.3963,6.4078,6.4276,6.4464,6.4607,6.4761,6.4888,6.503,6.5198,6.5421,6.5502,6.5706,6.5895,6.6184,6.6304,6.6464,6.6472,6.6512,6.6522,6.653,6.6527,6.6341,6.6502,6.6502,6.6503,6.6503,6.6503,0,6.407,6.4204,6.4375,6.4608,6.4756,6.4814,6.5002,6.5122,6.53,6.5471,6.5636,6.5864,6.6055,6.6234,6.6435,6.6529,6.6568,6.6576,6.6572,6.6599,6.6507,6.6464,6.6542,6.6542,6.6542,6.6542,6.6542,6.6542,6.4143,6.4343,6.444,6.4711,6.4844,6.5046,6.5149,6.5292,6.543,6.568,6.5842,6.5958,6.6132,6.6347,6.6525,6.6573,6.6642,6.6643,6.6699,6.6611,6.6605,6.6599,6.656,6.6656,6.6656,6.6778,6.6779,6.6779]}]]